This demonstration page uses our WeatherBlox Daily Observations layout. Learn more.

39.92423, -83.80882

Hourly Observations for June 6, 2017

Temp ( °F °C ) Dew Point ( °F °C ) Humidity (%) Winds ( mph kmh ) Pressure ( in mb ) Visibility ( mi km ) Precip ( " mm )
12:58 am 00:58 Clear 61 16.2 56 13.2 83 83 NNE 5 7 29.87 1012 10 16.0934 0 0
1:58 am 01:58 Clear 58 14.7 55 12.7 88 88 NNE 8 13 29.88 1012 10 16.0934 0 0
2:58 am 02:58 Clear 58 14.2 54 12.2 88 88 NNE 3 6 29.88 1012 10 16.0934 0 0
3:58 am 03:58 Clear 55 12.9 54 12.4 97 97 Calm 29.88 1012 9 14.48406 0 0
4:38 am 04:38 Clear 54 12 54 12 100 100 Calm 29.88 1012 7 11.26538 0 0
4:58 am 04:58 Clear 54 12 54 12 100 100 Calm 29.88 1012 7 11.26538 0 0
5:58 am 05:58 Clear 56 13.2 55 12.9 98 98 N 8 13 29.91 1013 10 16.0934 0 0
6:58 am 06:58 Sunny 56 13.2 54 12.3 94 94 NNE 5 7 29.93 1014 10 16.0934 0 0
7:58 am 07:58 Sunny 59 14.9 55 12.5 86 86 NNE 6 9 29.94 1014 10 16.0934 0 0
8:58 am 08:58 Sunny 62 16.4 53 11.8 74 74 ENE 3 6 29.96 1014 10 16.0934 0 0
9:58 am 09:58 Mostly Sunny 64 17.8 52 10.9 64 64 N 7 11 29.96 1015 10 16.0934 0 0
10:58 am 10:58 Sunny 67 19.2 46 7.5 47 47 N 9 15 29.95 1014 10 16.0934 0 0
11:30 am 11:30 Sunny 68 20 46 8 46 46 NNW 13 20 29.95 1014 10 16.0934 0 0
11:58 am 11:58 Sunny 69 20.5 47 8.2 45 45 N 12 19 29.94 1014 10 16.0934 0 0
12:58 pm 12:58 Sunny 71 21.6 47 8.3 43 43 N 10 17 29.93 1014 10 16.0934 0 0
1:58 pm 13:58 Mostly Sunny 73 22.5 47 8.5 41 41 NNW 6 9 29.91 1013 10 16.0934 0 0
2:24 pm 14:24 Mostly Sunny 73 23 48 9 41 41 NNW 14 22 29.91 1013 10 16.0934 0 0
2:40 pm 14:40 Partly Cloudy 73 23 46 8 38 38 N 13 20 29.9 1013 10 16.0934 0 0
2:58 pm 14:58 Mostly Cloudy 74 23.3 47 8.6 39 39 N 10 17 29.9 1013 10 16.0934 0 0
3:58 pm 15:58 Partly Cloudy 75 24.1 46 7.8 35 35 NNE 10 17 29.89 1012 10 16.0934 0 0
4:58 pm 16:58 Mostly Cloudy 75 23.7 47 8.1 37 37 N 12 19 29.89 1012 10 16.0934 0 0
5:58 pm 17:58 Mostly Cloudy 75 24 47 8.5 37 37 NNW 9 15 29.9 1013 10 16.0934 0 0
6:58 pm 18:58 Cloudy 72 22.2 46 7.9 40 40 N 8 13 29.9 1013 10 16.0934 0 0
7:58 pm 19:58 Mostly Cloudy 69 20.6 50 10 51 51 NE 14 22 29.93 1014 10 16.0934 0 0
8:58 pm 20:58 Cloudy 66 19.1 49 9.3 53 53 NE 10 17 29.94 1014 10 16.0934 0 0
9:58 pm 21:58 Mostly Clear 64 17.6 50 10.1 62 62 NNE 6 9 29.95 1014 10 16.0934 0 0
10:58 pm 22:58 Clear 60 15.5 51 10.6 73 73 N 5 7 29.98 1015 10 16.0934 0 0
11:58 pm 23:58 Partly Cloudy 59 14.8 52 11.1 79 79 Calm 29.98 1015 10 16.0934 0 0

Powered by AerisWeather